Wind_Speed
35 36 36 34 33 34 35 36 36 36 36 36 36 35 34 32 30 30 32 32 33 33 33 32 33 34 36 37 38 40 42 43 43 43 43 43 43 43 44 44 43 42 40 40 40 40 40 40 40 40 41 43 44 44 45 44 44 45 46 45 46 47 47 52 57 55 52 52 50 47 48 51 54 56 56 54 52 49 47 47 48 49 49 46 42
38 38 36 33 32 32 33 34 35 35 36 37 37 36 34 32 31 32 33 34 34 35 35 35 36 38 40 41 43 44 45 45 45 45 46 46 47 47 47 47 46 44 42 41 41 41 41 41 40 39 40 42 43 44 44 44 44 45 44 44 44 44 47 53 57 54 52 51 48 47 49 52 56 58 56 52 50 49 49 49 50 49 47 42 38
39 37 35 32 31 30 31 32 33 34 35 36 36 34 32 31 32 34 35 36 37 37 38 38 40 42 44 45 46 46 46 46 47 48 48 49 50 51 50 50 48 47 45 43 41 42 43 42 41 40 40 42 43 43 44 44 44 44 43 43 42 43 46 51 51 49 48 48 47 47 50 54 57 57 53 51 51 51 52 52 50 48 44 38 35
37 35 33 31 30 30 31 32 33 34 35 35 35 33 31 31 33 35 37 39 40 40 40 41 43 46 47 48 48 48 48 49 49 50 51 52 53 53 53 52 50 49 48 45 42 43 44 43 42 41 42 42 43 43 43 43 43 43 42 42 42 44 46 47 44 42 44 46 47 48 52 56 59 58 54 52 52 52 54 52 48 44 40 35 30
35 34 32 31 31 31 32 33 34 35 35 34 33 32 31 32 33 36 38 40 42 42 43 44 47 49 50 50 50 51 51 51 52 52 53 54 55 55 55 54 52 51 50 47 43 43 44 44 43 43 44 43 43 43 43 43 43 43 42 42 42 44 46 45 44 45 46 48 49 52 57 60 60 58 54 52 52 53 53 50 44 40 35 29 24
34 33 32 32 32 32 33 34 35 35 34 31 30 30 30 31 34 37 39 41 43 44 45 47 49 51 52 53 53 54 54 55 55 55 55 56 57 57 57 55 54 52 50 48 45 44 44 45 44 44 45 45 44 43 44 44 44 43 43 42 42 45 47 49 49 51 52 54 55 58 60 60 58 55 52 52 54 54 51 47 43 36 28 22 21
34 33 33 34 34 34 34 35 35 33 31 30 29 29 29 30 32 35 38 41 43 45 47 49 50 52 53 54 55 56 57 57 57 57 57 57 58 58 58 56 55 53 50 48 46 45 45 45 45 45 45 45 45 45 44 44 45 45 44 44 44 46 49 51 54 56 58 59 59 58 57 57 56 54 53 54 54 53 51 46 38 28 22 21 23
34 34 35 36 36 36 35 35 34 32 30 29 29 29 30 31 32 34 36 39 42 44 47 49 50 52 53 54 54 55 56 57 58 58 58 59 59 59 58 57 56 54 50 47 47 47 46 46 45 45 46 46 46 46 46 45 45 46 46 46 46 46 47 49 52 53 54 54 53 52 53 56 55 53 54 54 52 51 47 40 29 22 21 24 27
35 35 36 37 36 36 35 35 34 33 32 31 31 31 31 31 32 33 35 36 38 40 42 44 46 47 48 49 50 51 52 53 54 55 56 57 58 58 58 57 56 54 51 48 47 47 48 48 47 47 47 47 47 48 48 47 47 47 47 47 47 48 48 48 48 48 48 49 49 50 53 55 54 54 55 52 48 44 39 31 24 22 24 27 28
35 35 36 36 36 36 36 36 36 36 35 35 34 34 33 33 33 34 35 36 37 39 40 41 42 43 45 46 47 48 49 49 50 51 53 54 55 56 56 56 55 53 52 50 48 47 47 48 48 48 48 48 48 49 49 49 48 47 48 49 49 50 50 47 46 48 48 47 47 49 53 54 54 56 54 48 43 39 32 25 23 24 27 29 29
34 34 35 35 36 36 38 38 39 39 39 39 38 38 37 37 37 37 38 38 39 41 42 43 44 45 46 47 48 49 49 49 49 50 51 52 53 54 54 54 53 53 52 51 48 47 47 47 48 48 49 49 49 49 49 49 49 49 49 50 51 51 49 46 48 50 49 47 48 50 52 53 55 56 51 44 38 33 27 23 23 26 28 30 30
34 35 35 35 36 37 38 39 40 40 41 41 42 42 41 41 41 41 41 42 43 44 45 46 47 48 49 50 50 51 51 51 50 50 50 51 51 52 52 52 52 52 51 49 48 46 46 46 47 47 48 49 50 50 50 50 49 50 50 51 51 52 49 49 52 51 49 50 52 52 53 55 55 50 43 37 32 28 25 25 26 28 30 30 30
35 35 36 36 37 38 39 40 40 41 41 42 43 44 44 44 45 45 45 46 46 47 48 49 50 51 52 52 52 52 52 50 49 49 49 49 49 50 50 50 50 50 49 48 48 47 46 45 46 46 47 48 49 50 50 50 50 50 51 51 52 52 51 52 53 52 52 54 54 54 55 54 48 40 34 31 28 26 26 27 28 30 30 30 30
34 35 36 36 38 39 40 41 42 42 43 44 44 45 46 47 48 49 49 50 51 51 52 52 53 53 53 53 53 53 51 48 47 47 47 48 49 50 50 50 49 49 49 48 48 47 47 47 47 47 47 48 48 49 50 50 51 51 52 52 53 53 53 53 54 54 54 55 55 54 53 48 40 34 30 29 27 27 27 28 30 30 30 30 29
34 35 36 37 39 40 42 43 44 45 46 46 47 48 49 50 51 52 53 53 54 55 55 54 54 54 53 53 53 52 50 47 47 46 47 47 48 49 50 50 50 50 50 50 49 49 49 49 49 49 49 49 49 49 49 50 51 52 52 53 54 54 54 54 54 55 55 55 54 51 45 39 35 31 29 28 27 27 29 30 30 30 28 27 24
35 36 37 38 40 42 44 45 46 47 48 49 49 50 50 51 51 52 53 53 53 54 54 54 54 53 52 52 52 51 50 48 47 47 47 47 48 49 50 50 51 51 51 51 51 51 51 51 51 51 51 50 50 49 50 50 51 52 53 53 54 54 55 55 55 55 54 52 49 44 39 34 31 29 27 27 28 29 30 30 29 28 25 23 19
36 37 38 40 42 43 44 45 46 47 47 47 48 48 48 48 48 48 49 49 49 49 50 51 52 52 52 52 52 52 51 50 50 50 50 50 51 52 53 53 53 54 53 53 53 53 53 53 53 52 52 51 50 50 50 51 51 52 52 53 53 54 55 54 54 52 50 46 43 40 36 32 29 27 27 28 29 29 29 28 26 24 21 19 16
39 40 42 43 44 44 44 44 44 44 44 44 44 43 43 43 42 43 43 44 44 44 44 46 47 48 49 50 51 52 52 52 52 53 53 53 54 55 55 56 56 56 56 55 55 55 55 54 54 53 52 51 50 50 50 51 51 51 52 52 53 53 53 52 50 47 43 42 41 38 34 30 28 28 29 29 29 29 27 25 22 20 18 16 15
42 43 43 44 43 43 42 42 43 43 42 42 42 42 42 42 42 42 42 42 42 42 42 42 43 43 45 46 47 48 49 50 50 51 52 52 53 54 54 55 56 56 56 56 56 56 56 55 54 53 51 50 49 50 50 50 50 50 50 51 52 52 51 49 45 42 39 39 38 35 31 29 29 29 29 30 29 27 24 22 20 17 16 15 16
44 44 43 43 42 43 44 45 45 45 46 46 46 46 46 46 46 46 46 46 46 45 45 44 44 43 43 44 44 45 46 47 48 49 50 50 51 51 52 52 53 54 55 55 55 55 55 55 54 52 50 49 49 50 50 49 48 48 48 49 49 49 47 44 40 38 36 35 33 31 29 28 29 30 30 29 27 24 21 19 17 16 15 16 18
45 45 45 45 45 46 47 48 49 50 51 51 51 51 51 51 51 51 51 51 51 50 50 50 50 48 47 46 46 45 46 46 47 48 49 50 51 52 52 52 52 53 53 53 54 54 54 54 53 52 51 49 49 50 50 49 48 46 46 46 46 44 42 39 37 36 35 34 32 30 28 28 29 30 29 26 24 21 19 18 16 16 16 17 19
48 48 48 48 49 50 50 51 52 52 53 55 55 56 56 56 56 56 55 55 55 55 55 55 55 55 54 53 52 51 50 49 48 48 49 50 51 52 53 53 53 53 52 52 52 53 54 54 54 53 52 50 49 49 49 47 46 45 44 41 39 38 38 38 37 35 34 33 32 29 28 28 29 28 26 23 21 19 18 17 16 17 18 19 20
51 51 51 52 53 53 53 54 54 54 55 55 56 57 57 56 57 57 57 58 58 58 57 57 58 59 58 58 57 56 55 54 53 52 51 51 52 52 53 53 52 52 52 52 52 53 53 53 52 52 52 51 50 50 48 47 46 44 41 38 35 36 37 37 36 34 33 32 31 28 27 27 27 25 23 20 19 18 17 17 17 17 19 20 21
52 53 54 54 55 55 56 56 56 56 56 56 56 56 56 55 55 55 56 57 58 58 57 57 58 58 58 58 58 58 58 57 57 56 55 54 53 53 53 53 52 52 52 52 52 51 51 49 49 49 49 50 50 50 49 48 45 41 39 38 36 36 36 35 34 34 34 33 30 27 26 26 25 23 21 19 18 17 17 17 18 19 20 21 22
55 56 56 57 57 58 58 58 57 57 57 56 57 56 56 55 55 55 55 56 56 57 57 56 56 57 57 57 57 56 57 57 57 57 57 56 55 54 53 53 53 53 53 52 52 49 47 46 46 47 47 48 49 48 47 44 40 37 38 37 36 35 34 34 35 35 34 31 28 26 25 25 23 21 20 18 17 17 18 18 19 20 21 22 23
58 58 58 59 59 59 59 59 58 58 56 55 55 55 54 54 54 54 54 54 55 56 56 56 56 56 56 56 56 55 55 56 56 56 56 55 54 53 52 53 54 54 53 52 51 47 44 43 44 45 45 46 45 44 41 37 35 35 36 35 34 33 34 35 35 33 31 29 27 26 25 24 22 20 19 18 18 18 19 19 20 21 22 23 25
60 60 60 60 60 60 60 60 59 58 57 56 55 54 53 53 53 53 52 52 53 54 55 56 57 56 56 55 54 54 54 54 54 55 55 54 53 52 52 52 53 54 54 53 52 48 44 43 44 44 44 43 42 39 37 35 35 36 34 33 33 34 35 35 34 32 30 28 27 26 25 23 21 19 18 19 19 19 19 20 21 22 23 25 26
60 61 61 61 61 61 60 59 59 58 57 55 54 53 51 51 51 51 51 51 53 53 54 56 56 57 57 55 53 52 51 51 51 52 53 53 52 52 51 51 53 53 53 53 52 49 45 44 44 44 44 43 41 39 36 36 36 35 34 34 35 37 38 37 35 32 29 26 26 25 24 21 20 19 19 19 19 20 20 21 22 24 25 26 28
61 61 61 61 61 60 59 58 57 57 56 54 52 51 49 48 48 48 47 48 50 51 53 54 55 56 56 55 53 52 50 49 49 49 50 51 52 51 51 52 52 52 51 51 50 48 47 47 47 46 45 45 42 37 35 34 34 33 34 36 38 40 40 36 33 31 28 26 25 25 23 21 20 20 20 20 20 20 21 22 24 25 26 28 30
62 61 61 60 60 59 58 57 56 54 53 52 51 49 47 46 46 46 46 46 47 48 50 51 52 54 55 54 52 52 51 50 49 49 48 50 51 51 52 52 52 50 49 50 49 49 49 49 49 47 46 43 39 34 33 33 32 32 34 37 39 40 38 34 32 32 30 28 27 25 23 21 21 20 20 20 20 21 22 24 26 27 28 29 31
62 62 61 60 59 58 57 56 55 53 52 50 50 49 48 46 45 46 47 47 47 47 48 48 48 50 52 53 52 52 51 51 51 50 49 49 50 51 52 52 51 50 50 51 51 51 51 50 48 45 42 40 37 34 34 32 31 31 34 36 39 39 37 35 34 31 30 29 28 25 22 21 21 21 21 21 21 22 24 26 27 28 29 31 32
60 61 60 59 58 57 55 55 54 52 51 50 49 50 51 50 48 47 48 48 48 47 47 47 46 47 48 50 51 52 51 52 52 51 50 49 49 49 49 49 49 50 52 53 53 53 51 50 47 42 38 38 36 33 31 29 28 30 33 36 38 38 37 35 33 29 28 28 26 23 22 22 22 21 21 21 22 24 25 27 28 29 30 32 33
60 60 60 60 59 58 56 56 55 54 53 52 52 52 52 53 53 52 50 50 49 48 47 47 46 46 46 47 48 50 51 52 53 51 51 51 50 48 47 47 48 50 52 53 53 52 49 47 44 40 37 36 32 27 24 24 26 29 33 36 37 36 35 33 30 29 29 28 25 23 23 22 22 21 21 22 23 25 27 28 28 30 31 33 34
61 61 61 61 61 60 59 58 57 56 56 55 55 55 54 55 55 55 54 53 51 50 49 48 47 47 47 47 48 49 50 52 52 51 51 52 51 48 47 47 48 50 52 52 51 50 47 44 40 36 32 28 23 19 19 21 25 30 34 36 37 36 34 31 31 31 30 27 24 24 23 22 22 22 22 23 25 27 28 28 29 31 32 34 36
62 62 62 62 62 62 61 60 60 59 58 58 58 58 57 56 56 56 56 56 55 53 51 50 50 50 50 49 49 49 49 50 50 49 50 52 52 49 47 47 48 49 49 48 46 44 42 37 32 27 24 20 18 17 18 21 26 31 34 36 37 36 33 32 33 31 28 25 24 24 23 22 22 22 23 25 27 28 28 29 30 32 34 36 37
63 63 63 63 63 63 63 62 62 62 61 60 60 60 60 59 58 58 57 57 57 56 55 53 53 53 52 52 51 51 50 49 48 47 47 48 49 49 48 48 47 46 44 41 38 35 32 27 23 22 20 18 17 18 20 23 27 31 34 36 37 35 34 33 32 29 26 24 24 23 22 22 22 23 25 27 28 28 29 30 32 34 35 37 38
63 63 63 63 63 64 64 63 63 63 63 62 62 62 62 62 61 61 60 60 59 59 58 57 56 55 54 53 52 52 51 50 48 46 46 45 47 49 49 47 44 42 37 32 28 26 23 21 20 20 20 20 20 21 23 26 30 33 35 36 35 35 34 32 29 27 25 25 24 22 22 22 23 25 26 27 28 29 30 32 34 35 36 37 38
62 62 62 62 63 63 63 63 63 63 63 62 62 62 63 63 62 62 62 61 61 61 60 59 59 58 56 54 53 52 52 50 48 46 45 45 46 46 44 41 39 35 29 24 22 22 22 22 22 21 21 21 22 23 25 28 31 33 35 35 35 34 32 29 27 26 25 24 22 21 22 23 25 26 27 28 29 31 32 34 35 36 37 38 39
61 61 61 62 62 62 62 63 63 63 62 62 61 61 62 62 62 61 61 60 61 60 60 59 59 57 56 55 54 52 51 50 48 46 45 45 44 42 40 38 35 30 25 22 22 22 22 23 22 21 21 22 23 24 26 29 31 33 34 34 33 31 28 27 26 25 23 22 21 22 24 25 26 27 28 29 31 32 34 35 36 37 38 39 40
61 61 61 62 62 62 62 62 62 62 62 62 61 60 60 60 60 60 60 59 58 58 57 56 56 55 54 54 53 51 49 47 46 45 45 45 44 41 38 34 29 25 23 23 22 22 22 21 20 19 19 20 22 24 25 27 29 30 30 29 29 27 26 25 24 22 22 22 23 24 25 26 27 28 29 31 32 34 35 37 37 38 39 41 42
62 62 62 62 62 62 62 62 62 62 61 61 60 59 58 58 58 58 58 58 57 56 55 54 54 53 53 53 52 50 47 44 43 44 44 44 43 39 34 28 23 22 23 22 21 21 21 20 19 18 19 19 21 22 23 24 24 25 25 25 25 24 24 23 22 23 23 24 24 25 26 27 28 29 30 32 34 35 37 37 38 39 40 42 43
64 64 64 63 63 63 62 62 61 61 59 58 57 57 56 56 56 56 56 56 56 56 55 53 52 51 51 51 50 47 43 41 41 42 43 43 40 34 27 22 21 22 22 22 21 19 19 19 19 20 20 20 21 21 21 21 22 22 22 22 22 22 23 23 24 25 25 25 26 27 28 29 30 30 32 34 35 36 37 38 39 40 42 43 44
66 66 65 65 64 63 62 61 61 59 58 55 54 53 52 52 53 53 53 54 54 54 54 53 51 49 48 47 46 43 40 39 40 41 41 38 32 25 21 21 23 23 23 23 21 19 18 19 20 21 22 22 22 22 22 22 22 22 22 22 23 24 25 26 26 26 26 26 28 28 29 30 31 32 34 35 36 37 38 39 40 42 43 44 45
66 66 65 64 63 62 61 60 58 56 54 52 51 50 51 52 52 52 53 53 53 52 52 50 48 45 44 43 41 39 39 39 39 38 35 31 25 20 19 21 23 24 24 23 21 19 18 19 20 21 22 22 22 22 22 22 22 22 23 25 26 27 27 26 26 27 27 28 29 30 30 31 32 33 35 36 36 37 39 40 41 43 44 45 46
65 64 63 62 61 60 59 57 54 53 52 53 53 53 54 54 54 52 52 52 52 51 50 47 44 41 40 39 38 37 38 38 36 32 28 24 21 19 19 21 23 24 23 22 19 18 19 20 21 21 21 21 21 21 22 22 23 24 25 26 26 27 27 27 28 29 29 30 31 31 32 33 33 34 35 36 37 39 40 41 42 44 45 45 45
62 61 61 61 60 60 57 54 53 54 55 56 57 57 56 55 53 51 50 50 49 48 46 43 40 37 36 36 36 37 38 36 31 27 23 22 22 22 22 23 22 21 20 19 18 19 20 20 21 21 22 22 23 23 23 24 25 25 26 26 27 27 28 29 29 30 31 31 31 32 33 33 34 35 36 38 39 40 41 42 44 44 44 43 42
60 61 61 61 60 58 56 55 56 57 57 58 58 58 55 53 50 47 46 45 45 44 41 38 35 33 34 35 35 36 34 31 27 25 24 24 25 24 23 21 19 18 18 18 18 19 20 21 21 22 22 23 24 24 24 24 25 25 26 26 27 28 29 30 30 31 31 31 32 32 33 34 35 36 37 39 40 41 42 43 43 41 40 39 38
61 61 60 59 58 56 55 56 57 58 58 57 56 54 51 47 45 43 42 42 40 38 35 33 33 33 34 34 33 32 31 29 27 25 25 25 24 22 20 18 17 17 18 18 19 19 20 21 22 23 23 24 24 24 24 24 25 25 26 27 28 29 29 30 30 31 31 32 32 33 33 35 36 37 38 39 40 41 41 40 39 38 37 36 35
59 58 56 54 53 52 53 54 55 55 55 54 52 49 46 43 41 39 38 37 34 32 32 33 34 34 32 30 27 26 25 25 23 23 23 22 21 19 18 17 17 17 18 19 19 20 21 22 23 23 24 24 24 24 24 25 25 26 27 27 28 28 29 29 30 31 31 32 32 33 34 35 36 37 38 39 40 39 38 37 36 35 34 34 33
53 51 50 49 48 49 50 50 51 52 51 50 48 45 41 37 35 34 33 31 30 30 32 32 31 28 24 21 20 20 20 20 20 19 20 20 19 17 17 17 17 18 18 18 19 20 20 21 22 22 23 23 24 24 25 25 26 27 27 27 28 28 29 30 30 30 31 32 33 34 35 36 37 38 38 38 37 36 35 34 34 33 32 31 31
46 45 44 44 45 45 46 47 46 45 44 43 41 38 34 31 31 32 31 30 30 30 29 26 23 20 18 18 19 19 19 19 18 18 18 18 17 17 17 17 17 17 18 18 18 19 20 21 21 22 23 23 24 24 25 26 26 26 27 27 28 28 29 29 30 30 31 33 33 34 35 36 37 36 36 35 34 33 33 32 31 30 30 30 29
Wind_Direction
303 306 307 303 297 293 290 288 288 289 288 288 287 288 288 286 279 272 268 266 266 267 268 270 273 275 278 281 284 287 290 293 296 299 301 303 305 306 308 308 308 311 305 293 287 288 290 290 291 292 292 290 289 286 284 280 275 272 271 268 267 267 267 266 269 272 273 275 281 286 287 289 291 290 286 283 286 293 297 297 295 290 287 287 283
301 303 302 298 294 291 287 285 284 283 282 281 281 282 283 278 271 267 264 262 262 264 266 269 273 276 279 281 284 287 290 293 296 299 301 303 305 305 306 307 307 309 309 299 289 286 287 288 289 291 290 289 288 286 284 281 277 273 269 268 269 268 267 268 272 272 269 272 280 285 286 288 288 286 283 283 289 294 296 297 293 287 284 281 273
298 298 296 293 291 288 285 283 281 280 279 278 278 279 278 274 268 265 263 261 262 264 267 270 272 275 278 281 284 287 290 294 295 297 300 302 303 304 304 305 306 308 309 303 292 285 285 286 288 289 289 287 286 286 285 283 279 275 271 269 268 267 269 272 274 270 267 271 277 281 285 286 284 281 281 285 291 295 297 296 290 282 278 271 263
294 292 291 290 288 285 283 281 280 280 281 281 280 279 276 273 269 265 263 263 264 266 268 271 274 276 279 282 285 288 290 292 294 296 298 300 301 302 303 303 305 306 307 304 295 286 283 284 286 287 287 286 285 285 285 284 282 278 275 270 266 268 272 271 268 266 266 270 274 278 283 284 281 278 280 286 292 295 295 291 284 277 271 262 256
291 290 289 288 286 285 283 282 282 284 286 286 284 280 275 271 269 268 266 266 267 268 270 273 275 277 280 283 285 287 289 291 292 294 296 298 299 300 301 302 303 305 305 302 295 288 283 283 284 286 286 285 285 284 283 283 282 280 276 271 266 268 271 268 265 267 268 271 276 279 282 281 277 275 279 286 291 292 291 286 279 272 265 257 252
290 288 287 286 285 285 284 284 285 287 288 288 285 281 276 272 270 269 269 269 269 270 272 274 276 278 281 283 286 288 289 290 291 293 294 295 297 298 300 301 302 303 303 300 294 288 284 282 283 284 285 285 285 284 282 281 280 278 276 273 267 265 266 266 267 270 271 273 276 277 278 277 274 274 281 287 289 290 288 282 274 267 260 253 248
288 287 287 286 287 287 287 288 289 290 290 288 286 283 279 275 272 270 270 270 271 271 272 274 276 278 281 284 286 288 289 290 291 292 292 294 295 297 298 299 300 301 300 297 293 288 284 282 282 283 283 285 285 283 281 279 278 277 275 273 270 266 264 264 266 268 270 272 273 273 274 273 273 276 282 285 286 287 284 276 268 260 253 248 246
287 287 287 287 288 289 290 292 292 292 290 288 286 284 282 280 277 274 272 271 271 271 272 274 275 278 280 283 285 287 288 289 290 291 291 292 294 295 296 297 298 298 297 295 292 288 285 283 282 282 283 284 284 282 280 279 277 276 275 273 271 270 268 267 267 267 268 270 271 271 272 272 274 278 281 283 284 282 277 269 261 252 244 244 245
285 285 286 287 287 288 289 290 291 289 288 287 285 284 283 282 280 279 278 276 275 275 275 276 277 278 280 282 284 286 287 288 289 289 289 290 291 293 294 295 295 295 295 293 291 288 285 283 282 282 282 283 283 283 281 279 278 278 277 275 274 273 272 271 270 269 270 269 269 270 271 272 276 279 282 283 281 275 267 261 255 248 243 244 246
283 283 284 284 284 284 285 286 286 286 285 284 283 283 282 282 281 282 281 281 282 281 281 282 282 283 283 284 284 285 287 288 289 288 288 289 289 290 291 292 293 293 293 293 291 288 285 283 282 282 282 282 283 283 282 280 279 278 277 276 274 273 273 272 270 271 272 270 269 270 271 272 275 278 279 277 273 266 260 255 250 244 242 244 248
280 281 281 281 281 280 280 280 281 282 282 281 282 282 282 282 282 282 282 282 283 283 284 285 285 286 285 285 285 285 286 287 288 288 288 288 288 288 289 290 290 291 292 292 291 288 285 283 281 281 281 282 283 283 282 280 279 277 277 275 274 273 271 268 267 270 272 272 270 269 269 270 272 273 272 268 265 261 257 252 245 240 241 245 253
280 280 280 280 280 279 278 278 278 279 279 279 280 280 281 281 282 282 282 282 282 283 284 285 286 286 286 286 286 285 285 286 287 288 288 288 288 288 288 288 288 288 289 289 289 288 286 284 282 281 282 282 282 282 282 281 279 277 276 275 274 273 270 267 268 270 270 269 268 266 266 267 266 265 264 263 262 258 252 245 238 237 242 251 259
279 279 279 279 278 278 277 277 277 277 278 278 279 280 281 282 283 283 284 284 284 285 286 286 287 287 287 286 286 285 285 285 286 287 287 287 287 287 287 287 287 287 287 288 288 289 288 286 285 284 283 282 282 282 282 282 281 278 277 277 276 275 272 269 271 271 267 265 265 266 266 265 263 262 263 262 258 250 241 234 233 239 249 257 264
278 279 279 279 278 278 278 278 279 279 280 281 281 282 284 284 285 286 286 286 287 288 288 289 289 289 288 287 287 286 286 286 286 286 286 286 286 286 286 286 286 287 287 287 288 288 288 288 287 286 286 285 284 284 283 283 281 280 278 277 277 276 274 271 271 270 267 266 267 267 266 264 263 262 260 253 245 237 231 231 238 247 255 260 265
279 280 280 281 281 282 282 282 283 284 285 285 286 286 287 287 288 288 288 288 289 289 289 289 288 288 288 287 287 286 286 287 287 287 287 287 286 286 287 287 287 287 288 288 289 289 289 288 288 287 287 287 286 285 284 283 281 279 278 276 276 275 273 272 270 268 266 266 266 266 265 263 261 256 248 239 234 231 232 238 246 253 258 261 262
281 281 282 284 285 286 287 287 288 289 289 289 290 290 290 290 289 289 288 288 288 288 288 287 286 286 286 286 286 286 286 287 287 288 288 288 288 288 288 289 289 289 289 290 290 290 290 289 288 288 287 287 286 285 284 282 281 279 277 276 275 273 272 270 269 267 266 265 265 265 263 258 253 246 239 233 231 233 239 246 252 256 258 258 255
284 286 287 288 290 291 292 292 292 292 293 293 292 292 292 291 291 290 288 287 287 287 287 286 286 286 286 287 287 287 287 288 288 288 289 289 290 290 290 290 290 290 291 291 291 290 290 289 288 287 287 287 286 285 284 283 281 279 278 275 273 272 270 269 268 267 268 268 266 264 259 253 246 240 234 231 233 240 246 251 253 254 252 251 250
288 290 291 293 294 295 295 295 295 295 295 294 294 293 292 291 292 292 291 290 289 289 290 289 289 289 289 290 290 290 290 290 290 290 290 290 290 291 291 291 291 292 291 291 291 290 289 288 287 287 287 287 287 286 285 284 282 280 277 274 272 270 269 268 268 268 270 269 265 260 254 247 240 234 231 233 239 245 249 250 248 246 246 248 256
293 293 294 295 295 295 294 294 293 293 293 293 292 292 291 291 292 292 293 293 292 292 292 292 292 293 293 293 292 292 292 293 293 292 291 291 291 292 292 293 293 294 293 292 291 290 288 287 287 287 287 288 288 287 286 285 283 280 277 273 270 268 268 269 268 268 269 268 262 255 247 240 234 232 234 239 243 245 246 244 241 241 244 253 265
294 294 294 294 293 292 292 293 292 293 293 293 293 293 292 292 292 292 292 293 293 293 293 293 293 294 294 294 293 293 293 293 293 293 292 292 292 293 293 294 296 296 295 294 292 291 290 288 287 287 287 288 287 287 286 285 283 280 276 271 269 269 272 271 265 261 262 261 254 246 239 234 233 234 238 241 242 241 239 236 236 239 248 259 268
295 295 295 295 295 295 295 296 296 297 297 297 296 296 295 294 293 292 291 291 291 291 292 293 293 293 294 294 293 293 293 293 292 292 292 293 293 293 293 294 296 296 296 294 293 292 290 289 288 287 286 287 287 288 288 286 283 278 273 270 271 273 272 267 260 256 255 250 243 237 234 233 234 237 240 240 239 235 232 232 235 244 254 264 271
295 296 297 298 298 299 299 300 300 301 301 300 299 298 298 297 295 294 292 291 290 289 289 290 290 290 291 291 291 291 292 292 292 291 291 292 292 293 293 293 293 294 294 293 292 292 291 290 288 287 286 286 286 288 288 285 280 274 270 270 271 270 264 258 254 251 246 241 236 233 233 235 237 239 239 237 233 230 228 232 240 250 260 269 275
297 298 299 300 300 301 301 302 302 302 302 301 300 299 299 298 297 296 294 293 292 291 289 288 287 286 286 286 287 288 288 289 289 289 289 289 289 290 291 291 290 291 291 291 290 291 292 290 289 288 287 286 286 287 286 282 276 270 268 269 267 260 254 250 246 241 236 232 231 232 235 237 238 238 235 231 228 227 230 238 248 258 266 273 280
299 300 301 301 302 302 303 303 303 303 303 302 301 300 299 298 297 295 294 293 293 292 291 289 287 285 284 283 284 284 285 285 286 286 286 286 286 287 288 288 288 288 288 288 288 289 290 290 290 290 289 288 287 286 283 278 272 266 264 263 258 250 245 241 235 231 228 229 231 235 238 238 237 235 231 228 227 230 238 247 256 264 271 277 283
300 301 302 302 303 303 303 303 303 303 303 302 301 301 299 298 297 295 293 292 291 290 289 288 287 286 285 284 284 284 283 283 284 284 284 284 284 285 285 286 285 284 284 284 285 285 287 288 288 288 288 286 285 284 280 275 270 265 262 258 250 243 238 233 228 227 228 231 235 238 238 237 234 231 227 227 230 236 245 255 262 269 275 280 286
301 302 303 303 304 304 304 304 304 303 303 302 301 301 299 298 296 295 293 291 288 287 286 285 285 285 285 285 285 284 283 283 283 283 283 283 283 283 283 284 283 281 281 281 282 282 283 285 286 285 284 283 281 278 274 271 267 264 260 253 245 238 232 228 227 228 231 234 237 239 239 236 232 228 227 230 235 243 252 260 267 273 279 284 290
303 303 304 305 305 305 305 305 304 304 304 303 302 300 299 297 296 295 293 290 288 286 284 282 282 283 284 285 285 285 284 283 283 283 284 283 283 283 282 282 281 280 280 281 281 281 282 283 283 281 279 277 274 270 266 264 262 260 255 245 236 229 225 224 227 229 231 234 237 240 240 235 231 230 231 235 242 250 258 265 271 277 283 289 293
303 303 304 304 305 305 304 304 304 303 303 302 301 300 298 297 296 295 294 292 290 288 285 283 282 282 283 283 284 284 284 284 283 284 285 285 284 284 283 281 280 279 280 282 282 282 282 283 280 277 274 271 267 263 261 260 259 255 246 234 224 219 218 222 226 228 230 235 239 239 238 235 233 233 236 242 250 257 264 270 276 282 287 292 296
302 303 303 303 304 303 303 303 302 302 301 300 299 298 297 296 295 295 295 295 294 292 289 287 285 284 283 283 283 284 284 284 284 284 285 285 285 283 281 280 279 280 281 281 281 282 283 282 278 273 269 266 262 259 258 259 258 251 236 224 217 217 219 224 228 229 233 240 241 238 235 233 233 236 241 249 256 262 269 276 281 286 291 295 299
302 302 302 302 302 302 302 301 301 300 299 298 297 295 294 293 294 294 294 295 296 296 294 292 290 288 286 284 283 283 283 283 283 283 283 284 284 283 280 279 279 281 280 279 279 280 280 277 271 265 262 260 258 256 255 257 259 253 237 224 218 219 222 227 228 230 235 240 239 235 232 232 235 240 247 254 261 268 274 279 284 289 294 297 299
301 302 302 301 301 301 300 300 299 298 297 296 295 294 293 292 293 294 295 295 296 296 297 296 295 293 291 287 285 283 282 282 282 282 282 283 283 283 281 279 279 280 279 278 276 275 274 271 265 260 258 257 255 255 255 257 258 253 241 229 220 219 223 227 229 232 237 238 235 231 231 233 238 244 250 258 265 271 277 282 287 292 295 297 300
301 301 301 301 300 300 299 298 297 296 295 294 293 294 294 293 293 293 294 296 297 297 297 298 297 297 295 292 288 284 282 281 281 281 281 281 282 282 281 280 279 280 280 277 274 272 269 266 261 257 256 255 255 255 256 255 252 246 237 227 220 219 223 227 230 236 239 237 232 229 231 235 241 247 253 261 268 275 280 285 289 292 295 298 301
300 300 300 299 299 298 298 297 295 294 293 293 292 292 293 294 294 294 293 294 296 297 298 299 299 299 298 296 293 288 284 282 281 281 282 280 279 279 281 282 282 283 282 279 276 272 268 263 258 256 255 254 253 251 249 247 243 236 228 221 218 221 226 230 235 240 239 234 230 230 233 238 244 250 258 266 273 279 283 287 290 293 296 300 303
299 299 298 298 297 297 296 295 294 293 292 292 292 292 292 292 293 294 294 293 294 294 296 298 300 301 300 299 297 294 290 286 284 283 283 281 279 279 282 283 284 284 283 280 276 272 267 262 258 256 253 248 242 237 236 236 232 226 219 216 218 223 228 233 238 239 235 230 230 233 237 242 248 255 264 271 276 281 285 288 292 295 298 301 304
298 297 297 297 296 296 295 294 293 292 291 291 291 291 291 291 292 292 293 293 293 294 295 297 298 300 300 299 298 297 295 292 287 283 282 282 280 279 281 283 285 284 283 279 276 272 268 263 256 249 244 240 233 229 229 229 225 220 216 216 220 226 232 236 237 235 231 229 232 235 240 246 254 262 269 274 278 283 288 291 294 297 300 302 304
297 296 296 296 295 295 294 293 292 291 290 289 289 289 289 290 290 291 291 292 293 294 295 296 297 298 298 299 299 298 297 294 289 283 280 280 279 279 281 284 284 281 279 277 275 270 264 257 247 240 237 235 229 224 222 221 219 215 214 217 222 229 233 234 232 230 229 230 234 239 245 253 261 268 273 277 282 286 290 293 295 298 300 302 304
297 297 296 296 296 295 294 293 292 291 290 289 288 288 288 288 288 289 289 290 291 292 293 294 295 296 297 298 299 298 296 294 290 283 279 279 278 277 279 281 280 278 277 273 266 258 251 248 246 242 237 232 225 221 217 214 212 211 214 220 226 231 231 230 227 227 229 233 237 244 253 260 267 272 277 282 286 289 292 294 296 298 300 302 304
297 297 297 296 296 296 295 294 293 292 291 290 289 288 287 287 287 287 288 288 289 289 291 292 293 294 295 296 297 297 296 295 291 283 278 278 278 278 277 276 275 274 270 259 249 246 247 246 243 239 234 229 224 217 211 208 208 212 218 223 227 228 227 226 227 229 233 238 245 252 260 266 271 276 281 285 288 291 293 294 296 298 301 303 304
297 297 297 297 297 296 296 295 294 294 293 292 291 289 288 287 287 287 287 287 287 288 288 289 290 291 292 294 295 296 295 294 292 285 278 276 277 276 274 271 269 265 254 242 240 242 242 238 234 233 232 229 223 214 208 206 208 213 218 221 223 224 226 227 230 233 239 246 253 259 265 270 275 280 284 287 289 291 293 294 297 299 301 303 304
296 297 297 297 297 297 296 296 295 295 294 292 292 291 290 289 288 287 287 287 287 287 288 288 288 289 290 291 293 293 292 291 290 286 279 275 272 269 266 264 260 250 240 238 238 237 233 229 228 228 228 226 220 214 209 208 209 213 217 221 224 227 229 231 234 240 246 252 258 263 269 274 279 282 285 287 289 291 293 295 297 299 301 303 304
296 296 297 297 297 297 297 296 296 295 294 293 292 291 291 291 290 289 287 287 287 287 287 287 287 287 288 289 290 291 289 287 287 285 280 273 265 260 257 254 245 235 232 234 233 230 229 228 224 222 221 220 219 216 213 214 216 219 223 227 230 233 235 238 243 248 252 257 262 267 272 276 280 283 285 287 289 291 293 295 297 300 301 302 303
295 295 296 296 296 297 297 296 296 295 294 293 292 291 291 291 291 290 289 288 287 286 285 286 286 286 286 287 289 289 285 284 284 282 275 266 257 251 246 239 230 227 228 229 225 224 227 227 224 222 221 219 219 220 221 223 225 228 231 234 236 238 240 243 247 250 255 260 265 270 274 277 281 283 285 287 289 290 293 296 298 300 301 301 302
294 294 295 295 295 295 296 296 295 295 294 292 291 291 290 291 290 290 289 289 287 286 285 284 285 285 284 286 289 287 283 282 281 276 268 259 251 243 234 228 224 223 224 224 223 223 226 227 227 226 224 223 223 224 226 228 230 232 233 235 236 238 241 244 248 253 258 263 267 271 275 278 281 283 285 286 289 291 294 297 298 299 299 300 302
294 294 294 293 294 294 295 295 294 294 293 291 291 290 290 290 290 289 289 288 287 286 285 284 284 282 282 285 288 286 282 281 277 268 259 250 240 230 224 223 220 217 216 217 219 222 226 228 228 228 228 228 229 230 231 232 233 234 235 236 238 240 244 248 252 257 261 265 269 272 276 278 281 283 285 287 290 293 295 296 297 298 299 300 302
294 293 293 293 292 293 293 293 292 291 291 290 290 290 290 290 289 288 288 287 286 285 284 283 280 279 281 285 286 284 281 277 267 254 243 233 223 213 209 209 208 208 210 213 218 222 225 227 228 228 228 229 230 231 232 233 233 234 237 239 241 245 249 253 257 261 264 267 270 274 277 279 281 283 286 288 291 293 294 295 296 298 299 301 302
294 294 294 293 292 292 291 290 288 288 288 289 290 291 290 290 289 287 286 284 284 283 282 280 277 277 280 283 282 279 276 268 252 234 222 215 208 202 199 201 204 209 215 221 225 226 226 226 228 229 230 231 231 232 232 233 235 237 240 243 247 250 254 256 260 263 265 269 272 275 277 279 282 285 288 290 292 293 294 295 297 298 300 301 302
295 295 294 294 293 292 290 287 286 288 289 290 291 291 290 288 287 285 283 283 283 282 281 277 274 276 279 279 276 272 265 250 231 214 207 205 202 200 201 205 211 218 224 227 228 227 226 227 230 233 234 236 236 237 237 239 241 243 245 248 251 253 256 258 261 264 268 271 273 275 278 281 284 287 289 290 292 293 294 296 297 298 300 301 303
296 296 295 294 293 291 288 287 288 290 291 292 292 291 289 287 285 283 282 283 283 282 279 274 271 272 274 272 268 261 248 231 213 201 199 202 203 204 206 211 217 221 224 226 226 227 229 231 234 236 238 239 240 241 242 244 246 247 249 251 253 255 258 261 264 267 270 272 274 278 281 284 286 288 289 290 292 294 295 296 297 298 300 302 304
297 296 295 294 293 291 290 290 291 292 293 292 291 289 287 285 284 283 282 282 281 278 274 270 267 266 265 263 256 246 232 217 204 198 200 206 210 212 212 214 218 221 223 225 227 231 234 237 239 240 241 242 243 245 246 247 249 251 252 254 257 259 262 265 267 269 272 275 279 282 284 285 286 288 290 291 292 293 294 296 297 299 300 302 303
298 297 296 295 294 293 293 293 293 293 291 290 289 287 284 283 282 282 281 278 275 270 267 264 260 257 252 243 232 220 212 208 206 207 211 215 217 215 214 216 220 223 226 230 234 237 240 242 243 245 245 246 247 248 249 251 252 254 256 259 261 264 266 268 270 273 277 280 282 283 284 286 287 289 290 291 292 293 294 295 296 298 300 302 304
299 299 298 298 297 296 296 295 293 291 290 288 286 283 280 278 278 277 275 271 267 262 256 249 240 229 219 212 207 206 208 213 216 218 219 218 216 216 217 221 225 230 234 238 240 242 244 246 247 248 248 249 250 251 253 254 256 258 260 262 264 267 269 272 276 279 280 281 282 284 285 287 289 289 289 290 291 292 293 294 296 298 300 303 305
Height
3139 3138 3137 3136 3135 3134 3133 3132 3131 3129 3128 3127 3126 3126 3125 3124 3124 3123 3123 3122 3122 3121 3121 3121 3120 3119 3118 3117 3116 3115 3114 3113 3111 3109 3108 3106 3105 3103 3101 3099 3097 3095 3093 3091 3090 3087 3085 3083 3081 3081 3080 3077 3076 3075 3074 3073 3072 3071 3070 3069 3069 3069 3070 3067 3064 3063 3063 3061 3061 3060 3059 3058 3057 3056 3055 3054 3053 3051 3049 3047 3046 3044 3043 3042 3042
3135 3134 3133 3132 3131 3130 3129 3128 3127 3125 3124 3123 3122 3122 3121 3120 3119 3119 3119 3118 3117 3116 3116 3116 3115 3114 3113 3112 3111 3110 3109 3107 3106 3104 3103 3101 3100 3098 3096 3094 3092 3090 3088 3086 3085 3082 3080 3078 3077 3076 3075 3073 3071 3070 3069 3068 3067 3065 3065 3064 3064 3064 3064 3062 3059 3058 3057 3056 3055 3054 3053 3052 3051 3050 3049 3048 3047 3045 3043 3041 3040 3039 3038 3037 3037
3131 3130 3129 3128 3127 3126 3125 3123 3122 3121 3120 3119 3118 3117 3117 3116 3115 3115 3114 3114 3113 3112 3112 3111 3110 3109 3108 3107 3106 3105 3104 3102 3100 3099 3098 3096 3094 3093 3091 3089 3086 3085 3083 3081 3080 3078 3075 3073 3072 3072 3070 3067 3066 3066 3065 3063 3062 3060 3060 3059 3059 3059 3058 3057 3054 3053 3052 3051 3050 3049 3048 3047 3045 3044 3043 3042 3041 3039 3037 3036 3035 3034 3032 3032 3032
3126 3125 3124 3123 3122 3121 3119 3118 3117 3116 3115 3114 3113 3113 3112 3112 3111 3111 3110 3109 3109 3108 3107 3106 3105 3104 3103 3102 3101 3100 3098 3097 3095 3094 3092 3091 3089 3087 3085 3083 3081 3079 3078 3076 3074 3072 3070 3069 3068 3067 3065 3062 3061 3061 3060 3058 3057 3056 3055 3054 3054 3053 3053 3052 3050 3048 3047 3046 3045 3044 3042 3041 3041 3039 3038 3036 3035 3033 3032 3031 3029 3028 3028 3028 3029
3121 3120 3119 3118 3117 3115 3114 3113 3112 3110 3110 3109 3108 3108 3107 3107 3107 3106 3106 3105 3105 3104 3103 3102 3101 3099 3098 3097 3096 3094 3093 3091 3089 3088 3087 3085 3083 3081 3079 3078 3076 3074 3072 3071 3069 3067 3065 3064 3063 3062 3060 3058 3057 3056 3055 3053 3052 3051 3049 3049 3049 3048 3048 3046 3045 3044 3042 3040 3040 3039 3037 3036 3036 3034 3033 3031 3029 3028 3027 3026 3025 3024 3023 3024 3025
3116 3115 3114 3113 3112 3111 3109 3108 3107 3106 3105 3104 3103 3103 3102 3102 3102 3102 3101 3101 3100 3100 3099 3097 3096 3094 3093 3092 3090 3089 3087 3085 3084 3083 3081 3079 3077 3075 3073 3072 3070 3069 3067 3065 3063 3062 3060 3059 3058 3057 3054 3053 3052 3051 3050 3048 3047 3046 3044 3044 3043 3042 3041 3040 3039 3038 3036 3035 3034 3033 3032 3032 3030 3029 3027 3025 3024 3023 3022 3021 3020 3019 3020 3021 3022
3111 3110 3109 3108 3107 3106 3105 3104 3103 3102 3101 3100 3099 3098 3098 3097 3097 3096 3096 3095 3095 3094 3093 3092 3090 3089 3087 3086 3085 3083 3081 3079 3078 3077 3076 3074 3071 3069 3067 3066 3064 3063 3061 3060 3058 3057 3055 3054 3053 3051 3050 3048 3047 3045 3044 3043 3042 3040 3039 3038 3037 3036 3034 3033 3033 3031 3030 3029 3029 3028 3027 3026 3025 3023 3021 3020 3018 3017 3017 3015 3015 3016 3017 3018 3019
3106 3105 3104 3103 3102 3101 3101 3100 3099 3098 3097 3096 3095 3094 3093 3093 3092 3091 3090 3089 3089 3088 3087 3086 3084 3083 3082 3081 3079 3077 3075 3074 3073 3072 3070 3068 3066 3064 3062 3060 3058 3057 3056 3054 3053 3051 3050 3049 3047 3046 3044 3043 3041 3040 3038 3037 3036 3034 3034 3032 3031 3029 3028 3027 3026 3025 3024 3024 3023 3022 3022 3020 3019 3018 3016 3014 3013 3012 3011 3011 3011 3013 3014 3015 3016
3102 3101 3100 3099 3098 3097 3097 3096 3094 3093 3092 3092 3091 3090 3089 3088 3087 3086 3085 3084 3083 3081 3080 3079 3078 3077 3076 3075 3073 3071 3069 3068 3067 3066 3064 3062 3060 3058 3056 3054 3052 3050 3049 3048 3047 3045 3044 3042 3041 3040 3038 3037 3035 3034 3032 3031 3029 3028 3027 3026 3024 3023 3022 3021 3020 3019 3018 3018 3017 3016 3015 3014 3013 3011 3010 3008 3008 3007 3007 3007 3008 3010 3011 3012 3012
3098 3097 3096 3095 3094 3093 3092 3091 3090 3089 3088 3087 3086 3085 3084 3083 3082 3081 3080 3079 3078 3076 3075 3073 3072 3071 3070 3068 3067 3065 3064 3062 3061 3059 3058 3056 3054 3052 3050 3048 3046 3044 3042 3041 3040 3039 3037 3036 3035 3033 3032 3030 3029 3027 3026 3025 3023 3022 3021 3020 3018 3017 3015 3014 3014 3013 3012 3011 3010 3009 3008 3007 3006 3005 3004 3003 3002 3002 3003 3004 3005 3006 3007 3008 3008
3094 3094 3092 3091 3090 3089 3088 3087 3086 3085 3084 3083 3081 3080 3079 3078 3077 3076 3075 3074 3072 3071 3070 3069 3067 3066 3064 3063 3061 3059 3058 3056 3054 3053 3051 3049 3047 3045 3043 3041 3040 3038 3036 3035 3034 3032 3031 3029 3028 3027 3025 3024 3022 3021 3019 3018 3017 3016 3014 3013 3012 3010 3009 3008 3008 3007 3006 3005 3003 3002 3001 3000 2999 2998 2997 2997 2997 2998 2999 3000 3001 3002 3003 3003 3003
3091 3090 3089 3087 3086 3085 3084 3083 3082 3081 3079 3078 3077 3076 3074 3073 3072 3071 3070 3069 3067 3066 3065 3063 3062 3060 3058 3057 3055 3054 3052 3050 3048 3046 3045 3042 3040 3038 3037 3035 3033 3032 3030 3029 3027 3026 3024 3023 3022 3021 3019 3017 3016 3014 3012 3011 3010 3009 3007 3006 3005 3004 3003 3002 3001 3000 2999 2997 2995 2994 2993 2993 2991 2991 2992 2993 2993 2994 2995 2996 2997 2998 2999 2998 2999
3086 3086 3085 3083 3082 3081 3080 3078 3078 3076 3075 3074 3072 3071 3070 3069 3067 3066 3065 3063 3062 3061 3059 3058 3056 3054 3052 3051 3049 3047 3046 3044 3042 3040 3038 3036 3034 3032 3030 3029 3027 3026 3024 3023 3021 3019 3018 3017 3015 3014 3013 3011 3009 3007 3006 3005 3003 3002 3000 2999 2998 2997 2996 2995 2994 2993 2991 2988 2988 2987 2986 2986 2986 2987 2988 2989 2990 2991 2991 2992 2993 2994 2995 2994 2995
3082 3081 3080 3079 3078 3076 3075 3074 3073 3072 3071 3069 3068 3067 3065 3064 3062 3061 3059 3058 3056 3055 3053 3051 3050 3048 3046 3044 3042 3041 3039 3037 3035 3033 3032 3030 3028 3026 3024 3023 3021 3020 3018 3017 3015 3013 3012 3010 3009 3008 3006 3004 3003 3001 3000 2998 2997 2995 2994 2993 2991 2990 2989 2988 2988 2986 2984 2982 2981 2981 2981 2981 2982 2983 2984 2984 2985 2986 2988 2989 2990 2990 2990 2991 2991
3077 3077 3076 3074 3073 3072 3070 3069 3068 3066 3065 3064 3063 3061 3060 3058 3057 3055 3053 3052 3050 3048 3047 3045 3043 3041 3039 3037 3035 3034 3033 3030 3028 3027 3025 3023 3021 3019 3018 3017 3015 3014 3012 3010 3009 3007 3006 3004 3002 3001 2999 2997 2996 2994 2993 2991 2989 2988 2987 2985 2984 2983 2982 2981 2980 2978 2976 2975 2975 2975 2975 2976 2977 2978 2979 2980 2981 2983 2984 2985 2986 2986 2986 2987 2988
3073 3072 3071 3070 3068 3067 3065 3064 3062 3061 3060 3058 3057 3056 3054 3052 3051 3048 3047 3046 3044 3042 3040 3038 3036 3034 3032 3030 3028 3027 3026 3024 3022 3020 3018 3017 3015 3013 3011 3010 3009 3007 3006 3004 3003 3001 2999 2997 2995 2993 2992 2991 2989 2987 2986 2984 2982 2980 2979 2978 2977 2976 2975 2973 2972 2970 2969 2969 2970 2970 2971 2971 2972 2973 2975 2977 2978 2980 2981 2981 2982 2982 2982 2983 2984
3068 3067 3066 3065 3063 3062 3060 3059 3057 3056 3054 3053 3051 3050 3048 3046 3044 3042 3040 3039 3037 3035 3033 3031 3029 3027 3026 3024 3022 3021 3020 3018 3016 3014 3012 3010 3008 3006 3004 3003 3001 3000 2999 2998 2996 2994 2992 2990 2988 2986 2984 2983 2982 2980 2978 2977 2975 2973 2972 2971 2970 2969 2967 2966 2965 2965 2965 2965 2966 2966 2967 2967 2968 2970 2972 2973 2975 2976 2977 2977 2978 2978 2979 2979 2980
3063 3062 3061 3059 3058 3056 3055 3053 3052 3050 3049 3047 3045 3044 3042 3041 3039 3037 3035 3033 3031 3029 3027 3025 3024 3022 3020 3018 3015 3014 3013 3012 3009 3007 3006 3003 3001 2999 2997 2995 2994 2993 2992 2990 2988 2986 2984 2982 2980 2978 2977 2976 2974 2973 2971 2969 2968 2966 2965 2964 2963 2961 2960 2960 2960 2961 2961 2961 2961 2962 2962 2963 2965 2967 2968 2970 2971 2972 2972 2973 2974 2975 2975 2976 2976
3057 3056 3055 3054 3052 3051 3049 3048 3046 3044 3043 3041 3040 3038 3037 3035 3033 3031 3030 3027 3026 3024 3022 3020 3018 3016 3014 3012 3010 3008 3006 3005 3003 3000 2998 2996 2994 2992 2990 2988 2986 2985 2984 2982 2980 2978 2976 2975 2973 2971 2970 2968 2967 2965 2964 2962 2961 2960 2959 2958 2956 2955 2955 2956 2956 2956 2956 2956 2957 2958 2959 2960 2962 2964 2965 2966 2967 2967 2968 2969 2970 2971 2972 2973 2973
3052 3050 3049 3048 3047 3045 3043 3042 3040 3038 3037 3035 3034 3033 3031 3029 3028 3026 3024 3022 3020 3019 3017 3014 3013 3012 3009 3007 3005 3002 3000 2998 2996 2994 2992 2990 2987 2985 2983 2981 2979 2978 2976 2974 2972 2970 2969 2967 2966 2964 2963 2961 2959 2957 2956 2955 2954 2953 2952 2951 2950 2951 2952 2952 2951 2951 2952 2953 2954 2955 2956 2957 2959 2960 2961 2962 2962 2963 2964 2965 2966 2967 2969 2969 2970
3045 3044 3043 3042 3040 3039 3037 3035 3033 3032 3030 3028 3027 3026 3025 3023 3021 3019 3017 3016 3014 3013 3011 3008 3007 3006 3004 3002 3000 2997 2995 2992 2990 2988 2986 2983 2981 2979 2977 2975 2973 2971 2969 2967 2965 2963 2962 2960 2958 2957 2955 2954 2952 2950 2949 2948 2947 2946 2946 2945 2945 2946 2947 2947 2946 2947 2947 2948 2950 2951 2953 2954 2955 2956 2957 2957 2958 2959 2960 2962 2963 2964 2965 2966 2967
3039 3038 3036 3035 3033 3032 3030 3029 3027 3025 3023 3021 3019 3018 3017 3015 3013 3012 3010 3008 3007 3005 3004 3002 3000 2999 2998 2995 2993 2991 2989 2987 2985 2982 2979 2977 2975 2973 2971 2969 2967 2964 2962 2960 2958 2956 2955 2953 2951 2950 2948 2947 2945 2943 2942 2941 2940 2940 2940 2940 2940 2940 2940 2941 2941 2941 2943 2944 2945 2948 2949 2950 2951 2952 2953 2953 2955 2956 2957 2959 2960 2961 2962 2963 2963
3032 3031 3029 3028 3026 3024 3023 3021 3020 3018 3016 3013 3011 3010 3009 3007 3005 3003 3001 2999 2998 2997 2996 2994 2991 2990 2990 2988 2986 2984 2982 2979 2977 2975 2973 2970 2968 2966 2964 2962 2960 2958 2955 2953 2952 2950 2948 2946 2944 2943 2941 2940 2938 2937 2936 2935 2934 2934 2934 2935 2935 2934 2934 2935 2936 2937 2939 2940 2942 2944 2946 2947 2947 2948 2949 2950 2951 2953 2954 2955 2957 2958 2958 2959 2959
3025 3024 3023 3021 3019 3017 3015 3014 3012 3010 3008 3006 3003 3002 3000 2998 2997 2995 2992 2990 2988 2987 2986 2984 2982 2980 2980 2979 2977 2975 2972 2971 2969 2967 2964 2962 2960 2958 2957 2955 2953 2951 2949 2947 2945 2943 2941 2939 2938 2936 2934 2933 2931 2930 2929 2928 2928 2928 2928 2928 2928 2928 2929 2930 2931 2933 2935 2937 2939 2941 2942 2943 2944 2945 2946 2947 2948 2949 2951 2952 2954 2954 2955 2955 2955
3019 3017 3015 3013 3012 3010 3008 3007 3005 3002 3000 2998 2996 2994 2992 2990 2989 2987 2984 2982 2979 2977 2976 2975 2973 2971 2969 2968 2968 2966 2963 2961 2960 2958 2956 2954 2952 2950 2949 2947 2945 2943 2941 2940 2938 2936 2934 2933 2931 2929 2927 2926 2924 2923 2922 2922 2922 2923 2922 2922 2922 2924 2925 2926 2927 2930 2932 2934 2936 2938 2939 2939 2940 2941 2943 2944 2945 2947 2948 2949 2950 2951 2951 2951 2951
3011 3010 3008 3006 3004 3002 3000 2999 2997 2995 2993 2991 2988 2986 2984 2982 2980 2979 2977 2974 2972 2970 2968 2966 2964 2962 2961 2959 2958 2957 2955 2953 2952 2950 2948 2945 2944 2942 2940 2939 2937 2935 2934 2933 2930 2929 2927 2925 2924 2922 2920 2919 2918 2916 2916 2916 2917 2917 2916 2917 2918 2919 2921 2922 2925 2927 2930 2931 2933 2934 2935 2936 2937 2938 2940 2941 2942 2944 2945 2946 2947 2948 2948 2947 2947
3004 3002 3000 2998 2997 2995 2992 2990 2989 2987 2985 2983 2981 2979 2976 2974 2971 2970 2968 2966 2963 2961 2960 2958 2956 2954 2952 2951 2950 2949 2947 2946 2944 2942 2940 2937 2936 2934 2932 2931 2930 2928 2927 2926 2924 2921 2919 2918 2916 2915 2913 2912 2911 2910 2910 2911 2910 2910 2912 2913 2914 2916 2918 2920 2923 2925 2926 2928 2930 2931 2932 2933 2934 2936 2937 2938 2940 2941 2942 2943 2943 2944 2944 2943 2943
2997 2996 2993 2991 2989 2987 2985 2983 2981 2979 2978 2976 2973 2971 2969 2966 2964 2962 2961 2957 2955 2953 2951 2950 2948 2946 2944 2943 2942 2941 2940 2939 2937 2934 2932 2930 2929 2927 2925 2924 2923 2921 2920 2919 2917 2915 2913 2911 2910 2909 2907 2906 2905 2904 2905 2905 2904 2905 2908 2909 2910 2912 2915 2917 2919 2921 2923 2925 2927 2928 2929 2931 2932 2933 2935 2936 2937 2938 2939 2939 2940 2940 2940 2939 2938
2991 2989 2987 2985 2982 2980 2978 2976 2974 2972 2970 2968 2966 2964 2962 2960 2957 2956 2955 2951 2947 2945 2943 2942 2940 2938 2936 2936 2934 2933 2933 2932 2930 2927 2925 2923 2921 2919 2918 2916 2915 2914 2913 2911 2909 2908 2907 2905 2904 2903 2902 2900 2899 2899 2899 2900 2900 2902 2904 2905 2906 2909 2912 2914 2916 2918 2921 2922 2923 2924 2926 2928 2929 2931 2932 2934 2934 2935 2936 2936 2936 2936 2935 2935 2934
2984 2982 2980 2978 2976 2973 2971 2969 2967 2965 2962 2960 2959 2957 2956 2954 2951 2949 2948 2946 2942 2939 2936 2935 2933 2930 2928 2928 2927 2925 2924 2924 2922 2920 2918 2916 2914 2912 2910 2909 2907 2906 2905 2904 2902 2901 2900 2899 2898 2897 2896 2895 2894 2894 2895 2895 2896 2898 2900 2902 2904 2906 2909 2911 2913 2915 2917 2918 2919 2921 2923 2924 2926 2928 2930 2931 2932 2932 2932 2932 2932 2932 2931 2931 2929
2976 2975 2972 2970 2969 2966 2964 2962 2960 2958 2956 2953 2951 2949 2948 2948 2946 2943 2941 2939 2937 2934 2930 2928 2927 2924 2921 2920 2919 2918 2916 2916 2914 2913 2911 2909 2907 2905 2903 2902 2900 2899 2898 2896 2895 2894 2893 2892 2891 2891 2890 2890 2890 2891 2891 2891 2892 2893 2895 2897 2900 2903 2906 2909 2911 2912 2914 2915 2916 2917 2919 2921 2923 2925 2927 2928 2929 2929 2928 2928 2928 2928 2927 2926 2925
2968 2966 2964 2962 2960 2959 2957 2955 2953 2951 2949 2947 2945 2942 2939 2938 2938 2937 2935 2932 2930 2928 2925 2922 2920 2918 2915 2913 2911 2910 2909 2907 2906 2905 2903 2901 2899 2897 2896 2894 2893 2892 2891 2889 2888 2887 2886 2885 2884 2885 2885 2886 2886 2887 2887 2887 2888 2889 2891 2894 2897 2901 2904 2906 2908 2910 2910 2911 2912 2914 2916 2918 2920 2922 2923 2924 2925 2925 2925 2925 2924 2924 2923 2922 2921
2960 2959 2956 2954 2952 2951 2949 2947 2945 2943 2941 2939 2937 2935 2933 2930 2928 2928 2927 2926 2924 2921 2919 2916 2914 2912 2909 2906 2904 2902 2901 2899 2898 2897 2896 2894 2892 2890 2889 2888 2887 2885 2884 2883 2881 2880 2879 2878 2878 2879 2880 2881 2881 2882 2883 2884 2886 2887 2889 2892 2896 2899 2902 2904 2906 2906 2907 2908 2910 2911 2913 2915 2917 2918 2920 2920 2921 2921 2921 2921 2920 2920 2919 2918 2916
2953 2951 2949 2946 2944 2943 2941 2939 2937 2935 2933 2932 2929 2927 2926 2923 2920 2918 2917 2916 2915 2914 2912 2910 2908 2905 2903 2900 2898 2896 2894 2892 2891 2890 2888 2886 2885 2884 2882 2881 2880 2879 2877 2876 2875 2874 2874 2873 2873 2874 2875 2876 2877 2878 2880 2882 2884 2886 2888 2891 2894 2897 2899 2901 2902 2903 2904 2905 2907 2909 2911 2912 2914 2915 2916 2917 2917 2917 2917 2917 2916 2915 2914 2913 2911
2946 2944 2941 2938 2936 2934 2932 2930 2928 2926 2925 2924 2921 2919 2917 2916 2913 2911 2909 2907 2905 2905 2904 2903 2901 2899 2896 2894 2892 2889 2887 2885 2883 2882 2880 2879 2878 2877 2876 2875 2874 2873 2871 2870 2870 2870 2870 2870 2870 2870 2871 2872 2873 2875 2877 2879 2881 2884 2887 2890 2892 2895 2897 2898 2899 2900 2901 2903 2904 2906 2908 2909 2911 2912 2912 2913 2913 2913 2913 2912 2912 2911 2910 2908 2906
2938 2936 2934 2931 2928 2926 2924 2922 2920 2918 2916 2915 2913 2911 2909 2907 2905 2903 2901 2899 2897 2895 2895 2894 2893 2891 2889 2887 2885 2882 2880 2878 2876 2874 2872 2871 2871 2870 2869 2868 2868 2867 2865 2865 2865 2865 2866 2867 2867 2867 2868 2869 2871 2872 2874 2876 2878 2881 2884 2887 2890 2892 2893 2894 2895 2897 2899 2900 2902 2903 2905 2906 2907 2908 2909 2909 2909 2909 2908 2908 2907 2906 2905 2903 2901
2930 2928 2926 2923 2920 2917 2915 2913 2911 2908 2907 2906 2904 2902 2900 2899 2897 2895 2893 2891 2889 2887 2886 2885 2884 2883 2882 2881 2878 2875 2872 2870 2868 2867 2865 2864 2864 2863 2862 2862 2862 2861 2860 2860 2861 2861 2862 2863 2864 2865 2865 2866 2868 2870 2872 2874 2876 2879 2882 2885 2887 2889 2889 2890 2892 2894 2896 2897 2899 2900 2902 2903 2904 2904 2905 2905 2905 2904 2904 2903 2902 2901 2900 2898 2896
2922 2920 2917 2914 2911 2909 2906 2904 2902 2899 2897 2896 2894 2892 2890 2889 2888 2886 2885 2883 2881 2880 2878 2877 2876 2874 2874 2873 2871 2868 2865 2863 2861 2859 2858 2858 2857 2856 2856 2856 2856 2855 2855 2856 2857 2858 2859 2860 2861 2862 2862 2864 2865 2867 2869 2872 2875 2877 2880 2882 2883 2885 2886 2888 2890 2892 2893 2894 2896 2897 2898 2899 2900 2901 2901 2901 2900 2900 2899 2898 2897 2896 2895 2893 2891
2914 2912 2909 2906 2903 2901 2898 2895 2892 2890 2888 2886 2884 2883 2880 2879 2878 2877 2876 2874 2873 2871 2870 2869 2868 2867 2866 2864 2862 2860 2858 2855 2854 2852 2852 2851 2851 2850 2851 2851 2850 2850 2851 2852 2853 2854 2855 2856 2857 2859 2860 2861 2863 2865 2867 2869 2872 2874 2877 2878 2880 2882 2884 2886 2887 2889 2890 2892 2893 2894 2895 2896 2896 2897 2897 2896 2896 2895 2894 2893 2892 2891 2889 2888 2886
2906 2904 2901 2898 2895 2892 2889 2886 2884 2881 2879 2877 2875 2873 2871 2869 2868 2867 2866 2865 2864 2863 2862 2860 2860 2859 2858 2856 2854 2852 2850 2848 2847 2846 2845 2844 2845 2845 2845 2845 2845 2846 2847 2848 2849 2850 2852 2853 2854 2856 2857 2859 2861 2863 2864 2866 2869 2871 2873 2875 2878 2880 2882 2883 2885 2886 2887 2888 2889 2890 2891 2892 2892 2893 2892 2892 2891 2890 2889 2889 2887 2886 2884 2882 2880
2897 2895 2893 2890 2887 2884 2881 2878 2875 2873 2870 2867 2865 2864 2862 2860 2859 2857 2856 2855 2854 2854 2853 2852 2851 2851 2850 2848 2846 2845 2843 2841 2841 2840 2838 2838 2838 2838 2839 2840 2841 2843 2844 2844 2845 2847 2849 2850 2852 2854 2855 2857 2859 2861 2863 2865 2867 2869 2871 2873 2875 2877 2879 2881 2882 2883 2884 2885 2886 2887 2887 2888 2888 2888 2887 2887 2886 2885 2884 2883 2882 2880 2878 2877 2875
2888 2886 2884 2882 2878 2875 2872 2870 2867 2864 2862 2859 2857 2855 2853 2852 2850 2848 2847 2846 2846 2845 2844 2844 2843 2843 2841 2840 2839 2837 2835 2835 2834 2833 2832 2832 2833 2833 2833 2835 2837 2839 2840 2841 2842 2844 2846 2848 2850 2852 2854 2856 2858 2859 2861 2863 2865 2867 2869 2871 2873 2875 2876 2877 2878 2879 2880 2881 2882 2883 2883 2883 2883 2883 2882 2882 2881 2880 2879 2878 2877 2875 2873 2871 2869
2879 2877 2874 2872 2869 2867 2864 2861 2858 2856 2853 2851 2849 2848 2846 2844 2842 2840 2839 2838 2837 2836 2835 2835 2835 2834 2833 2832 2831 2830 2829 2828 2828 2827 2827 2827 2828 2828 2829 2831 2834 2836 2837 2838 2839 2841 2843 2846 2848 2850 2852 2854 2856 2857 2859 2861 2863 2865 2866 2868 2870 2871 2872 2873 2874 2875 2876 2877 2878 2878 2879 2879 2878 2878 2877 2877 2876 2875 2874 2872 2871 2869 2867 2865 2863
2870 2868 2865 2863 2861 2858 2855 2853 2850 2847 2845 2843 2842 2840 2839 2837 2835 2833 2831 2830 2829 2828 2827 2826 2826 2826 2825 2825 2824 2823 2823 2822 2822 2821 2822 2823 2823 2824 2825 2828 2830 2832 2833 2835 2836 2838 2841 2843 2845 2847 2849 2851 2853 2855 2857 2858 2860 2861 2863 2864 2865 2867 2868 2869 2870 2871 2872 2873 2874 2874 2874 2873 2873 2873 2872 2871 2870 2869 2868 2867 2865 2863 2861 2859 2857
2861 2858 2856 2854 2852 2850 2847 2845 2842 2840 2838 2835 2834 2832 2831 2829 2827 2826 2824 2822 2821 2820 2819 2819 2818 2818 2818 2818 2818 2817 2817 2817 2817 2816 2817 2818 2819 2821 2822 2824 2826 2828 2830 2832 2834 2836 2838 2840 2842 2844 2846 2848 2850 2852 2853 2855 2856 2857 2859 2860 2862 2863 2864 2865 2866 2867 2868 2869 2869 2869 2869 2868 2868 2867 2867 2866 2865 2864 2862 2861 2859 2857 2855 2853 2851
2852 2849 2846 2844 2842 2841 2839 2837 2835 2832 2830 2828 2826 2824 2822 2821 2819 2818 2816 2815 2813 2812 2812 2811 2811 2811 2812 2812 2811 2811 2811 2811 2812 2812 2813 2815 2816 2818 2820 2822 2824 2826 2828 2830 2831 2833 2835 2837 2839 2841 2843 2845 2846 2848 2849 2851 2852 2854 2855 2857 2858 2859 2860 2861 2862 2863 2863 2864 2864 2864 2863 2863 2862 2862 2861 2860 2859 2858 2856 2855 2853 2851 2849 2847 2845
2844 2841 2838 2835 2833 2831 2830 2828 2826 2824 2822 2820 2817 2815 2813 2812 2811 2810 2808 2807 2806 2806 2805 2805 2805 2806 2806 2806 2806 2806 2806 2807 2807 2808 2809 2811 2814 2816 2818 2820 2821 2823 2825 2827 2829 2831 2833 2835 2836 2838 2840 2842 2843 2845 2846 2847 2849 2850 2852 2853 2854 2855 2856 2857 2858 2858 2858 2859 2858 2858 2858 2858 2857 2856 2856 2854 2853 2852 2850 2849 2847 2845 2843 2842 2840
2836 2833 2830 2827 2825 2823 2821 2819 2817 2815 2813 2811 2808 2806 2805 2804 2803 2802 2801 2801 2800 2799 2799 2800 2800 2800 2800 2800 2800 2801 2802 2803 2803 2805 2807 2810 2812 2814 2816 2817 2819 2821 2823 2825 2827 2829 2831 2832 2834 2836 2837 2839 2840 2841 2843 2844 2845 2847 2848 2849 2850 2851 2852 2852 2853 2853 2853 2853 2853 2853 2853 2852 2852 2851 2850 2849 2847 2846 2844 2843 2841 2839 2838 2837 2835
2828 2825 2822 2819 2817 2815 2813 2811 2809 2807 2804 2802 2800 2798 2797 2796 2795 2795 2795 2794 2794 2794 2795 2795 2795 2796 2796 2796 2797 2798 2799 2801 2802 2804 2806 2809 2811 2813 2814 2816 2817 2819 2821 2823 2825 2827 2828 2830 2831 2833 2834 2836 2837 2838 2839 2841 2842 2842 2844 2844 2845 2846 2847 2848 2848 2848 2848 2848 2848 2848 2847 2847 2846 2845 2844 2843 2841 2840 2838 2837 2836 2834 2833 2832 2830
2820 2817 2814 2812 2810 2808 2806 2804 2801 2799 2796 2794 2792 2791 2790 2790 2789 2789 2789 2789 2789 2790 2790 2790 2791 2792 2792 2793 2795 2797 2798 2800 2802 2804 2806 2808 2809 2811 2812 2814 2816 2818 2820 2821 2823 2825 2826 2827 2829 2830 2831 2832 2834 2835 2836 2837 2838 2839 2840 2840 2841 2842 2842 2843 2843 2843 2843 2843 2843 2842 2842 2841 2840 2839 2838 2837 2835 2834 2833 2832 2830 2829 2828 2827 2825
2813 2810 2808 2805 2803 2801 2799 2796 2794 2791 2789 2787 2785 2784 2784 2784 2784 2784 2784 2784 2784 2785 2786 2787 2788 2789 2790 2792 2794 2796 2798 2800 2801 2803 2805 2806 2808 2810 2811 2813 2815 2817 2818 2819 2821 2822 2823 2825 2826 2827 2828 2829 2830 2831 2832 2833 2834 2835 2835 2836 2837 2837 2837 2837 2838 2838 2837 2837 2837 2837 2836 2835 2834 2833 2832 2831 2830 2829 2828 2827 2826 2825 2823 2822 2821